When you browse on this site, cookies collect data to enhance your experience and personalize the content and advertising you see.
Visit our Privacy Policy to learn more. By continuing to use the site, you agree to this use of cookies and data.
  • In Romania
  • List of Countries
  • For 7 days
  • Water Temperature
  • Satellite Maps
  • Weather Map
  • Weather Widgets
  • user-avatar
    Login

    Hourly Weather Arpino

    Today, 21 July, Sunday

    Time Temperature Precipitation Wind Pressure Humidity
    00:00 +23°C° 0 mm 1 mps 728 mmHg 75%
    01:00 +22°C° 0 mm 1 mps 728 mmHg 74%
    02:00 +22°C° 0 mm 1 mps 728 mmHg 74%
    03:00 +22°C° 0 mm 1 mps 727 mmHg 74%
    04:00 +22°C° 0 mm 1 mps 727 mmHg 75%
    05:00 +23°C° 0 mm 1 mps 727 mmHg 71%
    06:00 +24°C° 0 mm 1 mps 728 mmHg 68%
    07:00 +26°C° 0 mm 1 mps 728 mmHg 64%
    08:00 +28°C° 0 mm 1 mps 729 mmHg 58%
    09:00 +29°C° 0 mm 1 mps 729 mmHg 52%
    10:00 +31°C° 0 mm 1 mps 729 mmHg 47%
    11:00 +32°C° 0 mm 1 mps 729 mmHg 45%
    12:00 +32°C° 0 mm 1 mps 729 mmHg 43%
    13:00 +33°C° 0 mm 1 mps 729 mmHg 41%
    14:00 +33°C° 0.1 mm 1 mps 729 mmHg 41%
    15:00 +34°C° 0.1 mm 2 mps 729 mmHg 41%
    16:00 +34°C° 0.1 mm 2 mps 729 mmHg 40%
    17:00 +31°C° 0 mm 1 mps 728 mmHg 45%
    18:00 +29°C° 0 mm 1 mps 728 mmHg 50%
    19:00 +28°C° 0 mm 1 mps 728 mmHg 55%
    20:00 +27°C° 0 mm 1 mps 728 mmHg 56%
    21:00 +25°C° 0 mm 1 mps 728 mmHg 58%
    22:00 +24°C° 0 mm 1 mps 728 mmHg 59%
    23:00 +24°C° 0 mm 1 mps 728 mmHg 59%

    Tomorrow, 22 July, Monday

    Time Temperature Precipitation Wind Pressure Humidity
    00:00 +24°C° 0 mm 1 mps 729 mmHg 60%
    01:00 +23°C° 0 mm 1 mps 729 mmHg 60%
    02:00 +23°C° 0 mm 1 mps 728 mmHg 60%
    03:00 +23°C° 0 mm 1 mps 728 mmHg 60%
    04:00 +23°C° 0 mm 1 mps 728 mmHg 60%
    05:00 +24°C° 0 mm 1 mps 728 mmHg 59%
    06:00 +26°C° 0 mm 1 mps 728 mmHg 57%
    07:00 +25°C° 0 mm 0 mps 728 mmHg 55%
    08:00 +29°C° 0 mm 1 mps 729 mmHg 50%
    09:00 +31°C° 0 mm 1 mps 729 mmHg 44%
    10:00 +33°C° 0 mm 1 mps 729 mmHg 38%
    11:00 +34°C° 0 mm 1 mps 729 mmHg 37%
    12:00 +34°C° 0 mm 1 mps 729 mmHg 36%
    13:00 +35°C° 0 mm 1 mps 729 mmHg 34%
    14:00 +35°C° 0 mm 1 mps 729 mmHg 35%
    15:00 +34°C° 0 mm 1 mps 728 mmHg 36%
    16:00 +34°C° 0 mm 1 mps 728 mmHg 38%
    17:00 +32°C° 0 mm 1 mps 728 mmHg 43%
    18:00 +31°C° 0 mm 1 mps 728 mmHg 48%
    19:00 +29°C° 0 mm 1 mps 728 mmHg 53%
    20:00 +28°C° 0 mm 1 mps 728 mmHg 57%
    21:00 +26°C° 0 mm 1 mps 728 mmHg 60%
    22:00 +25°C° 0 mm 1 mps 728 mmHg 63%
    23:00 +25°C° 0 mm 1 mps 727 mmHg 65%

    Day after tomorrow, 23 July, Tuesday

    Time Temperature Precipitation Wind Pressure Humidity
    00:00 +24°C° 0 mm 1 mps 727 mmHg 67%
    01:00 +24°C° 0 mm 1 mps 727 mmHg 69%
    02:00 +24°C° 0 mm 1 mps 727 mmHg 70%
    03:00 +24°C° 0 mm 1 mps 727 mmHg 70%
    04:00 +23°C° 0 mm 1 mps 726 mmHg 70%
    05:00 +25°C° 0 mm 1 mps 727 mmHg 68%
    06:00 +26°C° 0 mm 1 mps 727 mmHg 66%
    07:00 +27°C° 0 mm 1 mps 727 mmHg 63%
    08:00 +29°C° 0 mm 1 mps 727 mmHg 56%
    09:00 +31°C° 0 mm 1 mps 727 mmHg 49%
    10:00 +33°C° 0 mm 1 mps 728 mmHg 42%
    11:00 +34°C° 0 mm 1 mps 728 mmHg 39%
    12:00 +34°C° 0 mm 1 mps 727 mmHg 37%
    13:00 +35°C° 0 mm 1 mps 727 mmHg 34%
    14:00 +35°C° 0 mm 1 mps 727 mmHg 35%
    15:00 +36°C° 0 mm 2 mps 727 mmHg 36%
    16:00 +35°C° 0 mm 2 mps 726 mmHg 36%
    17:00 +34°C° 0 mm 2 mps 726 mmHg 42%
    18:00 +31°C° 0 mm 1 mps 726 mmHg 48%
    19:00 +29°C° 0 mm 1 mps 726 mmHg 53%
    20:00 +28°C° 0 mm 1 mps 726 mmHg 54%
    21:00 +26°C° 0 mm 2 mps 726 mmHg 55%
    22:00 +25°C° 0 mm 2 mps 726 mmHg 56%
    23:00 +24°C° 0 mm 2 mps 726 mmHg 55%

    24 July, Wednesday

    Time Temperature Precipitation Wind Pressure Humidity
    00:00 +24°C° 0 mm 2 mps 726 mmHg 54%
    01:00 +23°C° 0 mm 2 mps 725 mmHg 52%
    02:00 +23°C° 0 mm 2 mps 725 mmHg 52%
    03:00 +23°C° 0 mm 2 mps 725 mmHg 52%
    04:00 +23°C° 0 mm 2 mps 725 mmHg 51%
    05:00 +24°C° 0 mm 2 mps 725 mmHg 51%
    06:00 +25°C° 0 mm 2 mps 725 mmHg 51%
    07:00 +26°C° 0 mm 1 mps 725 mmHg 50%
    08:00 +28°C° 0 mm 1 mps 726 mmHg 45%
    09:00 +30°C° 0 mm 1 mps 726 mmHg 41%
    10:00 +31°C° 0 mm 0 mps 726 mmHg 36%
    11:00 +34°C° 0 mm 1 mps 726 mmHg 34%
    12:00 +34°C° 0 mm 1 mps 726 mmHg 32%
    13:00 +35°C° 0 mm 1 mps 726 mmHg 30%
    14:00 +35°C° 0 mm 1 mps 726 mmHg 31%
    15:00 +36°C° 0 mm 2 mps 725 mmHg 32%
    16:00 +36°C° 0 mm 2 mps 725 mmHg 33%
    17:00 +34°C° 0 mm 2 mps 725 mmHg 39%
    18:00 +31°C° 0 mm 1 mps 725 mmHg 46%
    19:00 +29°C° 0 mm 1 mps 724 mmHg 52%
    20:00 +27°C° 0 mm 1 mps 725 mmHg 54%
    21:00 +26°C° 0 mm 1 mps 725 mmHg 56%
    22:00 +24°C° 0 mm 2 mps 725 mmHg 58%
    23:00 +24°C° 0 mm 2 mps 725 mmHg 58%

    25 July, Thursday

    Time Temperature Precipitation Wind Pressure Humidity
    00:00 +24°C° 0 mm 2 mps 724 mmHg 57%
    01:00 +23°C° 0 mm 1 mps 724 mmHg 56%
    02:00 +23°C° 0 mm 1 mps 724 mmHg 55%
    03:00 +23°C° 0 mm 1 mps 724 mmHg 55%
    04:00 +22°C° 0 mm 1 mps 724 mmHg 54%
    05:00 +24°C° 0 mm 1 mps 724 mmHg 52%
    06:00 +25°C° 0 mm 1 mps 725 mmHg 50%
    07:00 +27°C° 0 mm 1 mps 725 mmHg 48%
    08:00 +29°C° 0 mm 1 mps 725 mmHg 44%
    09:00 +31°C° 0 mm 1 mps 725 mmHg 40%
    10:00 +33°C° 0 mm 1 mps 726 mmHg 35%
    11:00 +34°C° 0 mm 1 mps 725 mmHg 33%
    12:00 +34°C° 0 mm 1 mps 725 mmHg 32%
    13:00 +35°C° 0 mm 1 mps 725 mmHg 30%
    14:00 +36°C° 0 mm 2 mps 725 mmHg 31%
    15:00 +36°C° 0 mm 2 mps 725 mmHg 33%
    16:00 +35°C° 0 mm 3 mps 725 mmHg 34%
    17:00 +32°C° 0 mm 2 mps 724 mmHg 41%
    18:00 +30°C° 0 mm 2 mps 724 mmHg 48%
    19:00 +29°C° 0 mm 1 mps 724 mmHg 55%
    20:00 +27°C° 0 mm 1 mps 724 mmHg 58%
    21:00 +26°C° 0 mm 1 mps 724 mmHg 61%
    22:00 +25°C° 0 mm 1 mps 724 mmHg 65%
    23:00 +24°C° 0 mm 1 mps 724 mmHg 65%

    26 July, Friday

    Time Temperature Precipitation Wind Pressure Humidity
    00:00 +24°C° 0 mm 1 mps 724 mmHg 65%
    01:00 +24°C° 0 mm 1 mps 724 mmHg 66%
    02:00 +24°C° 0 mm 1 mps 724 mmHg 66%
    03:00 +23°C° 0 mm 1 mps 724 mmHg 67%
    04:00 +23°C° 0 mm 1 mps 724 mmHg 67%
    05:00 +23°C° 0 mm 0 mps 724 mmHg 64%
    06:00 +24°C° 0 mm 0 mps 724 mmHg 61%
    07:00 +25°C° 0 mm 0 mps 724 mmHg 57%
    08:00 +27°C° 0 mm 0 mps 724 mmHg 52%
    09:00 +31°C° 0 mm 1 mps 724 mmHg 47%
    10:00 +32°C° 0 mm 1 mps 725 mmHg 41%
    11:00 +33°C° 0 mm 1 mps 725 mmHg 39%
    12:00 +35°C° 0 mm 2 mps 724 mmHg 36%
    13:00 +36°C° 0 mm 2 mps 724 mmHg 33%
    14:00 +36°C° 0 mm 2 mps 724 mmHg 35%
    15:00 +35°C° 0 mm 3 mps 724 mmHg 38%
    16:00 +34°C° 0 mm 3 mps 723 mmHg 40%
    17:00 +32°C° 0 mm 2 mps 723 mmHg 45%
    18:00 +30°C° 0 mm 2 mps 723 mmHg 51%
    19:00 +29°C° 0 mm 1 mps 723 mmHg 56%
    20:00 +27°C° 0 mm 1 mps 723 mmHg 59%
    21:00 +26°C° 0 mm 1 mps 723 mmHg 62%
    22:00 +25°C° 0 mm 1 mps 723 mmHg 66%
    23:00 +25°C° 0 mm 1 mps 723 mmHg 65%
    Show more